Weather History for MMMX - September, 2011

Change the Weather History Date:

Wednesday, September 14, 2011

  Actual Average Record
Temperature  
Mean Temperature 64 °F -  
Max Temperature 78 °F 71 °F 78 °F (2011)
Min Temperature 51 °F 52 °F 51 °F (1996)
Growing Degree Days 14 (Base 50)    
Moisture  
Dew Point 46 °F    
Average Humidity 62    
Maximum Humidity 94    
Minimum Humidity 16    
Precipitation  
Precipitation 0.00 in - - ()
Sea Level Pressure  
Sea Level Pressure 30.21 in    
Wind  
Wind Speed 6 mph ()    
Max Wind Speed 15 mph    
Max Gust Speed -    
Visibility 7.0 miles    
Events Fog    
Averages and records for this station are not official NWS values.
T = Trace of Precipitation, MM = Missing Value Source: Averaged Metar Reports

Daily Weather History Graph

Daily Weather History Graph

Search for Another Location

Airport or City:

Trip Planner

Search our weather history database for the weather conditions in past years. The results will help you decide how hot, cold, wet, or windy it might be!

Date:

Astronomy

Sep. 14, 2011 Rise Set
Actual Time 7:23 AM CDT 7:40 PM CDT
Civil Twilight 7:01 AM CDT 8:01 PM CDT
Nautical Twilight 6:36 AM CDT 8:27 PM CDT
Astronomical Twilight 6:10 AM CDT 8:53 PM CDT
Moon 8:57 PM CDT (9/14) 9:07 AM CDT (9/14)
Length of Visible Light 13h 00m
Length of Day
12h 16m
Waning Gibbous, 95% of the Moon is Illuminated
Sep 14
Waning Gibbous
Sep 20
Last Quarter
Sep 27
New
Oct 3
First Quarter
Oct 11
Full

Hourly Weather History & Observations

Time (CDT) Temp. Dew Point Humidity Pressure Visibility Wind Dir Wind Speed Gust Speed Precip Events Conditions
12:51 AM 60.8 °F 51.8 °F 72% 29.87 in 14.0 mi North 4.6 mph - N/A   Clear
1:51 AM 59.0 °F 51.8 °F 77% 30.35 in 14.0 mi ESE 4.6 mph - N/A   Clear
2:52 AM 59.0 °F 51.8 °F 77% 30.33 in 12.0 mi Calm Calm - N/A   Scattered Clouds
3:51 AM 59.0 °F 51.8 °F 77% 29.79 in 12.0 mi NNW 4.6 mph - N/A   Mostly Cloudy
4:48 AM 57.2 °F 51.8 °F 82% 30.31 in 12.0 mi East 4.6 mph - N/A   Mostly Cloudy
5:50 AM 53.6 °F 50.0 °F 88% 30.31 in 4.0 mi East 4.6 mph - N/A   Scattered Clouds
6:45 AM 53.6 °F 50.0 °F 88% 29.88 in 4.0 mi East 8.1 mph - N/A   Partly Cloudy
7:21 AM 51.8 °F 48.2 °F 88% 30.33 in 4.0 mi East 6.9 mph - N/A   Scattered Clouds
7:40 AM 51.8 °F 48.2 °F 88% 30.33 in 3.0 mi ESE 5.8 mph - N/A   Scattered Clouds
7:52 AM 51.8 °F 50.0 °F 94% 30.33 in 1.0 mi East 5.8 mph - N/A   Mist
7:53 AM 51.8 °F 50.0 °F 94% 30.33 in 1.0 mi East 5.8 mph - N/A   Mist
8:01 AM 51.8 °F 50.0 °F 94% 30.34 in 0.1 mi East 5.8 mph - N/A Fog Fog
8:20 AM 51.8 °F 50.0 °F 94% 30.34 in 0.1 mi East 5.8 mph - N/A Fog Fog
8:48 AM 53.6 °F 51.8 °F 94% 30.34 in 0.2 mi ENE 5.8 mph - N/A Fog Fog
8:50 AM 53.6 °F 51.8 °F 94% 30.34 in 0.2 mi ENE 5.8 mph - N/A Fog Fog
9:05 AM 53.6 °F 51.8 °F 94% 30.35 in 1.0 mi East 8.1 mph - N/A   Mostly Cloudy
9:21 AM 55.4 °F 51.8 °F 88% 30.35 in 2.5 mi ENE 6.9 mph - N/A   Scattered Clouds
9:22 AM 55.4 °F 51.8 °F 88% 30.35 in 2.5 mi ENE 6.9 mph - N/A   Scattered Clouds
9:43 AM 55.4 °F 51.8 °F 88% 29.94 in 2.5 mi NE 6.9 mph - N/A   Scattered Clouds
10:03 AM 59.0 °F 51.8 °F 77% 30.35 in 2.5 mi ESE 6.9 mph - N/A   Scattered Clouds
10:16 AM 60.8 °F 51.8 °F 72% 30.34 in 3.0 mi ENE 5.8 mph - N/A   Clear
10:24 AM 60.8 °F 51.8 °F 72% 30.34 in 3.0 mi ENE 4.6 mph - N/A   Clear
10:45 AM 62.6 °F 53.6 °F 72% 30.34 in 3.0 mi SE 5.8 mph - N/A   Haze
11:17 AM 66.2 °F 50.0 °F 56% 30.33 in 3.0 mi ESE 8.1 mph - N/A   Haze
11:44 AM 68.0 °F 39.2 °F 35% 30.32 in 4.0 mi ENE 11.5 mph - N/A   Clear
12:44 PM 71.6 °F 37.4 °F 29% 30.30 in 7.0 mi NE 9.2 mph - N/A   Clear
12:46 PM 71.6 °F 37.4 °F 29% 29.79 in 7.0 mi NE 9.2 mph - N/A   Clear
1:43 PM 73.4 °F 41.0 °F 31% 30.28 in 10.0 mi ENE 13.8 mph - N/A   Clear
2:52 PM 77.0 °F 33.8 °F 21% 30.25 in 10.0 mi North 6.9 mph - N/A   Clear
2:53 PM 77.0 °F 33.8 °F 21% 30.25 in 10.0 mi North 6.9 mph - N/A   Clear
3:53 PM 78.8 °F 33.8 °F 20% 29.71 in 10.0 mi North 5.8 mph - N/A   Partly Cloudy
4:47 PM 78.8 °F 28.4 °F 16% 30.19 in 12.0 mi NNE 9.2 mph - N/A   Partly Cloudy
5:45 PM 77.0 °F 35.6 °F 22% 30.18 in 10.0 mi NNW 12.7 mph - N/A   Partly Cloudy
6:55 PM 75.2 °F 37.4 °F 25% 29.70 in 10.0 mi NNW 13.8 mph - N/A   Partly Cloudy
7:48 PM 73.4 °F 39.2 °F 29% 30.19 in 10.0 mi NNE 8.1 mph - N/A   Partly Cloudy
8:49 PM 69.8 °F 41.0 °F 35% 30.25 in 12.0 mi North 15.0 mph - N/A   Partly Cloudy
8:51 PM 69.8 °F 41.0 °F 35% 30.25 in 12.0 mi North 15.0 mph - N/A   Partly Cloudy
9:46 PM 66.2 °F 41.0 °F 40% 30.28 in 15.0 mi NNE 11.5 mph - N/A   Clear
9:48 PM 66.2 °F 41.0 °F 40% 29.82 in 15.0 mi NE 11.5 mph - N/A   Clear
10:46 PM 64.4 °F 42.8 °F 45% 30.31 in 15.0 mi North 6.9 mph - N/A   Clear
11:45 PM 64.4 °F 44.6 °F 49% 30.32 in 15.0 mi NNE 3.5 mph - N/A   Scattered Clouds